sat.trackr.live / text

‹ back to catalog

KUIPER-00220

NORAD 67781 · 2026-030T

PAYLOAD ACTIVE UNKNOWN

§ Identity

Operator
Country
US
Launch date
2026-02-12
Launch site
FRGUI
Launch vehicle
Mass (kg)
RCS (m²)

External: N2YO · Heavens-Above · Gunter

§ Orbital elements

Epoch: 2026-05-25T04:00:03.998880Z

Period
94.31 min
Inclination
51.8850°
Eccentricity
0.0008398
Mean motion
15.26943156 rev/d
Perigee alt
479.2 km
Apogee alt
490.7 km
Semi-major
6,863.1 km
B*
-4.9259e-2
RAAN
210.8009°
Arg perigee
343.6538°
Mean anomaly
185.5983°
Rev number
557

§ Raw data

KUIPER-002201 67781U 26030T   26145.16671295 -.01216923  00000+0 -49259-1 0  99902 67781  51.8850 210.8009 0008398 343.6538 185.5983 15.26943156  5576

JSON: /api/v1/satellites/67781 · /tle

For live sub-satellite position, see the globe view (requires WebGL).

§ Visibility from observer

Set your observer location to see the next 7 days of passes ≥ 10°. The values pass through the URL so the page stays shareable.

No JS? Fill the form by hand. The geolocation button needs JavaScript.